Theta_e
313 315 320 322 324 327 333 335 342 347 341 342 344 340 335 334 332 330 331 328 328 330 329 328 328 329 330 332 332 335 337 337 340 343 341 343 343 341 344 342 342 342 342 340 335 334 336 336 336 336 337 337 337 336 335 335 334 335 334 334 334 333 332 332 335 333 332 334 335 336 334 335 336 337 336 336 336 336 335 333 335 337 337 338 337 336 335 336 336 335 335 336 333 323 318 317 317
313 316 320 323 325 328 338 341 342 344 340 341 342 340 338 335 331 332 334 331 330 330 330 329 330 332 331 332 331 338 341 338 340 340 341 342 342 343 343 342 343 342 342 339 333 334 336 336 335 336 336 336 336 336 335 334 334 334 334 333 334 332 332 334 336 333 332 335 337 337 335 335 336 337 337 337 337 336 336 335 336 337 337 337 337 336 335 336 335 335 336 336 333 324 320 320 319
312 316 320 324 330 331 342 344 343 342 339 343 342 339 337 333 333 334 334 332 331 329 329 330 332 330 331 335 331 338 343 339 342 343 343 342 343 343 342 343 342 342 342 337 332 332 334 335 336 336 336 336 336 336 334 334 334 334 334 334 333 332 333 335 335 333 333 335 338 337 335 336 337 337 338 338 337 338 336 336 337 338 337 337 336 335 335 336 336 335 335 336 335 329 324 324 321
313 318 319 324 338 340 346 346 346 346 341 344 342 339 337 332 332 331 331 331 329 329 330 330 331 328 331 334 330 340 344 340 342 344 344 341 343 343 342 343 342 342 340 336 330 328 331 333 336 336 335 335 334 335 334 335 335 334 334 334 333 333 334 335 334 333 334 337 337 336 336 336 337 338 339 338 338 338 337 337 338 338 337 336 336 335 335 334 334 335 334 334 335 332 328 326 323
314 320 319 323 339 342 344 344 345 345 340 344 343 342 339 331 331 328 329 329 329 331 331 330 332 329 331 330 331 345 347 342 340 340 342 340 343 342 343 343 342 341 338 336 329 325 328 331 334 334 334 335 334 334 335 335 335 335 334 334 334 334 335 335 334 334 336 337 337 336 336 337 338 338 339 338 338 339 338 338 338 338 337 336 336 336 335 333 333 333 333 333 333 332 331 327 323
315 321 321 322 332 334 340 343 345 343 340 343 343 344 339 332 332 329 328 328 329 330 330 331 330 328 330 328 332 343 342 342 341 339 341 341 343 343 343 343 342 341 338 337 329 324 326 329 331 330 332 335 334 333 334 335 335 335 334 334 334 335 336 332 332 336 337 337 337 336 337 337 338 338 339 338 338 338 338 338 338 338 337 336 336 335 334 333 332 332 331 332 333 332 332 329 323
313 322 328 330 332 333 341 344 345 344 341 340 340 340 336 335 334 331 330 328 329 328 330 331 328 329 330 328 334 342 340 341 341 340 342 342 344 343 343 343 342 340 338 336 329 323 325 328 327 328 333 335 334 332 331 333 335 335 334 335 335 337 335 330 331 334 336 336 336 337 337 337 338 338 338 339 339 338 338 338 337 337 336 336 335 334 333 332 331 329 329 331 332 332 332 331 325
312 323 333 339 339 334 340 342 340 342 344 339 336 336 333 333 333 333 335 330 330 329 330 331 330 329 328 335 343 342 341 341 341 340 342 343 344 343 343 343 341 339 338 335 327 324 327 329 326 329 334 334 333 331 331 333 335 335 335 335 336 337 334 332 333 333 333 335 336 337 337 337 337 337 337 338 338 337 337 337 336 336 335 334 334 333 331 331 329 327 327 328 330 331 331 332 328
315 322 330 337 339 336 339 341 336 336 338 336 330 331 331 330 331 332 334 333 332 330 331 332 331 328 330 345 348 341 341 342 341 341 343 344 344 344 343 342 341 339 338 334 326 325 331 332 329 331 335 333 333 333 332 333 333 333 332 333 335 335 332 333 335 334 334 335 336 336 336 337 336 335 336 337 337 337 336 336 336 335 335 333 333 332 330 331 330 328 327 325 327 331 330 330 329
320 324 331 334 337 338 339 339 338 336 333 334 331 329 327 326 327 328 330 332 333 332 332 331 329 328 333 345 344 342 342 341 342 342 343 344 343 343 343 342 341 339 337 335 327 326 333 333 330 332 334 332 333 334 331 329 328 328 328 329 332 332 332 334 335 335 335 336 336 336 336 336 336 334 334 334 334 335 335 335 333 332 330 329 330 329 329 330 329 327 326 325 325 329 330 327 326
326 325 330 333 336 337 337 336 337 338 334 332 331 328 325 322 324 326 328 331 332 333 331 327 329 331 334 343 344 341 341 340 342 342 344 344 344 343 342 342 340 340 337 336 330 326 333 333 332 332 333 333 334 335 330 325 325 324 325 328 330 332 333 335 335 335 336 337 337 336 336 336 336 333 332 332 331 332 332 332 329 327 326 325 326 327 329 328 326 326 326 326 324 328 329 327 326
329 326 329 333 336 336 334 334 333 334 333 329 326 324 320 321 324 323 326 329 332 333 331 328 329 330 333 346 346 339 340 341 341 341 344 343 344 343 342 342 340 340 338 338 333 327 330 332 334 334 333 332 333 336 330 324 325 323 324 329 332 333 334 335 335 336 337 337 337 336 336 335 335 333 333 331 330 329 329 329 328 327 327 326 326 326 328 326 326 328 328 327 325 327 329 328 328
325 325 330 331 332 334 331 332 332 329 328 325 321 319 317 323 323 317 321 326 330 333 333 330 328 335 339 344 343 341 343 341 341 342 342 343 344 343 342 342 341 341 339 339 337 331 328 330 333 334 333 332 333 336 331 325 325 324 326 330 332 334 334 335 335 336 336 337 337 336 335 335 335 334 333 332 330 330 330 330 330 329 328 327 326 327 327 325 326 328 328 327 325 325 328 328 328
318 322 328 326 326 330 328 328 328 323 323 321 317 316 316 322 318 314 319 322 330 332 331 328 327 344 348 344 346 346 345 340 342 342 341 343 343 344 342 342 342 341 340 339 339 336 330 328 331 332 333 332 333 335 331 327 327 328 330 331 332 333 334 335 335 335 337 337 337 336 335 335 335 334 334 333 332 331 331 330 329 329 328 327 327 327 326 324 325 328 328 327 325 324 325 327 327
315 323 328 325 323 324 326 325 323 321 322 319 315 315 314 319 314 312 317 317 326 328 327 330 328 339 343 348 356 348 343 341 343 342 341 342 342 343 343 342 342 340 341 340 339 339 333 329 329 330 332 331 332 334 332 330 331 332 332 332 333 333 334 334 335 336 337 337 337 336 335 335 335 334 334 333 333 332 331 330 329 328 328 329 327 327 326 324 325 328 328 327 326 324 323 324 325
316 328 331 326 323 323 323 322 322 324 323 316 313 312 312 316 312 311 314 313 321 323 326 332 331 335 335 345 352 342 341 342 342 342 341 341 341 342 342 342 342 341 341 341 340 340 336 332 329 328 329 330 332 332 330 331 331 332 332 332 333 332 333 334 335 336 337 337 337 337 335 335 335 334 334 333 332 331 330 329 328 327 328 330 328 327 326 324 325 328 328 328 327 325 323 322 323
324 332 331 328 327 322 320 318 317 319 318 312 310 310 311 314 310 310 312 312 320 323 323 324 326 334 338 340 341 340 342 342 341 341 342 342 342 341 342 342 341 342 341 341 340 340 338 334 331 328 328 328 329 331 329 330 330 330 331 331 332 332 334 336 336 337 337 337 337 337 336 335 335 334 334 333 331 330 330 329 328 326 327 329 328 327 326 323 323 327 328 327 327 326 325 322 323
326 328 328 328 324 317 314 312 309 310 312 309 308 309 310 313 309 309 312 312 318 318 315 315 317 327 338 339 338 341 340 341 342 340 340 340 341 341 341 341 341 341 340 341 340 339 338 336 333 330 330 327 325 329 328 328 330 330 331 331 333 334 336 337 337 337 337 337 337 337 336 335 335 334 333 332 331 330 329 328 327 325 325 327 327 327 327 324 323 326 327 327 327 327 326 324 323
316 320 327 322 313 309 307 308 308 309 310 309 309 309 310 311 309 309 311 311 315 313 310 311 312 316 332 340 337 339 339 340 340 338 339 338 340 341 340 341 340 341 340 340 340 339 338 336 335 332 332 330 324 326 327 326 327 329 332 333 334 336 337 337 337 337 337 336 336 336 335 335 334 334 333 331 330 329 329 328 326 324 323 325 326 326 326 325 324 325 326 328 327 327 326 324 323
310 314 320 312 305 305 305 307 308 308 309 309 309 309 310 310 309 310 309 312 316 311 309 310 311 310 323 337 332 332 337 337 339 337 337 337 339 340 340 341 340 340 340 340 340 339 339 337 337 334 333 333 328 325 325 325 325 326 329 330 333 335 336 337 337 337 336 336 335 335 334 334 334 333 332 331 330 329 328 327 326 324 323 323 325 326 324 325 325 325 326 328 328 327 326 324 323
307 310 308 304 304 305 304 307 307 307 308 308 308 309 310 309 309 309 309 313 315 310 309 309 310 309 314 333 332 329 333 335 338 338 336 337 338 339 340 340 340 340 339 339 339 339 339 337 337 336 335 335 332 327 324 324 326 326 326 326 328 331 334 336 336 336 336 335 335 335 334 334 333 332 331 330 329 329 328 327 325 324 323 323 324 325 323 324 325 324 325 327 327 326 326 325 324
307 307 303 302 304 305 304 306 307 307 307 307 308 309 309 309 308 309 310 311 312 310 309 308 310 309 312 331 335 330 334 335 336 336 336 336 337 339 339 340 340 340 340 339 339 339 339 338 337 337 336 336 335 332 328 325 326 327 328 327 326 328 331 333 335 335 335 335 335 334 333 333 332 331 330 329 329 328 327 326 325 324 324 323 324 324 324 325 325 324 325 325 325 325 325 325 325
307 306 303 304 304 305 305 304 305 306 306 306 307 308 307 308 307 308 309 307 309 309 309 309 309 309 309 325 335 334 337 336 334 334 334 334 335 337 339 340 340 340 340 339 339 339 339 338 338 338 337 336 335 334 333 330 328 328 327 328 327 327 329 330 331 331 332 332 333 333 332 331 330 330 329 328 328 328 327 326 325 324 324 323 323 323 324 325 324 324 325 325 324 324 324 324 324
306 306 305 304 304 305 305 303 304 304 305 306 307 308 306 307 307 307 308 305 306 308 307 307 306 306 306 315 330 337 338 335 332 334 335 334 333 334 337 340 340 340 341 340 340 339 339 339 339 338 337 337 336 335 335 334 332 330 327 326 326 326 327 328 326 326 329 330 330 331 331 330 329 329 328 328 327 327 326 325 325 324 324 323 322 322 323 325 323 323 324 324 324 324 323 323 322
306 306 305 304 304 304 304 303 304 303 304 306 306 307 306 306 306 306 308 307 307 307 305 306 304 305 305 309 320 328 333 334 332 333 334 334 334 333 334 337 339 340 340 340 341 340 340 340 339 339 338 337 336 335 335 335 335 334 328 323 321 322 324 323 322 324 327 328 329 331 331 329 329 328 327 327 326 326 325 325 325 325 324 323 323 322 322 323 323 323 323 323 323 323 323 322 321
306 306 305 304 304 303 303 304 303 303 302 304 305 307 308 307 307 310 311 308 308 307 307 308 306 306 305 308 313 315 322 330 331 333 332 333 334 333 333 333 337 340 339 340 340 340 341 340 340 339 339 338 337 337 336 335 336 336 333 326 319 318 319 319 320 322 325 327 328 329 329 327 326 326 326 326 325 325 326 326 326 325 325 324 323 323 322 322 323 323 323 323 323 323 322 322 321
306 305 305 306 305 303 303 303 302 302 302 303 306 308 310 310 309 312 313 309 308 308 308 308 307 307 305 306 310 311 316 321 325 332 334 332 332 332 333 331 332 335 338 339 339 340 340 340 340 340 339 338 337 338 337 337 336 336 336 332 324 318 317 317 318 321 323 324 324 323 323 322 322 324 325 326 325 326 326 326 326 326 325 324 323 323 323 322 322 323 324 324 323 322 323 323 322
306 306 307 307 305 303 302 302 302 301 303 305 307 310 313 313 310 311 311 308 308 308 308 308 307 307 306 305 308 310 313 316 319 326 331 332 332 332 333 332 332 332 334 336 337 338 340 340 340 340 340 339 338 338 337 337 337 337 337 336 331 323 318 317 318 319 320 322 322 320 321 322 323 322 323 325 326 327 327 326 326 326 326 324 323 323 323 323 321 322 323 323 322 321 322 324 324
306 306 307 306 304 304 302 302 302 302 303 303 306 312 314 312 310 309 308 307 307 308 308 308 307 307 306 305 306 308 311 313 313 316 321 327 331 331 330 330 330 331 333 335 335 335 337 339 339 340 340 340 339 339 339 338 338 338 337 337 335 329 323 319 319 320 321 323 323 321 322 325 325 323 322 324 327 327 327 326 326 326 325 324 323 323 324 323 322 322 322 322 322 322 322 323 324
306 306 305 304 306 306 303 302 303 303 304 302 306 314 312 309 308 307 306 306 308 308 307 307 306 305 304 304 306 308 309 310 309 310 313 319 326 327 325 324 325 327 330 333 334 333 335 338 339 339 340 341 340 339 338 338 337 337 336 335 335 331 327 323 322 323 324 325 325 324 324 326 326 324 322 325 327 327 326 326 326 326 325 324 323 323 324 324 323 323 322 322 322 323 322 322 323
305 307 305 303 307 307 303 303 303 305 305 303 309 313 309 306 306 305 305 308 308 308 308 307 306 304 304 307 308 308 307 307 307 307 309 312 316 319 318 319 322 323 324 327 329 330 332 336 338 339 340 340 340 339 338 337 336 336 335 334 333 332 330 328 327 326 327 328 328 326 326 327 327 325 323 324 327 326 326 326 326 326 325 324 324 324 324 324 324 323 323 322 322 322 323 322 322
305 307 307 304 305 305 303 303 303 305 305 303 307 308 305 305 305 306 306 308 308 307 307 307 306 305 305 307 307 306 305 305 304 304 306 307 309 311 311 312 316 318 319 321 324 327 329 330 333 336 338 339 339 339 338 338 336 335 335 335 334 333 332 331 331 331 331 331 330 328 327 328 328 326 323 324 326 326 326 326 325 325 325 325 324 324 324 324 324 324 323 323 323 323 323 323 322
304 305 306 305 305 305 304 304 303 305 305 303 304 305 304 305 305 305 305 305 306 306 305 305 305 305 305 305 305 304 303 302 302 302 303 304 305 306 306 307 308 311 315 316 319 322 323 326 328 329 331 334 337 339 338 338 337 335 335 335 335 334 334 333 332 333 333 333 332 329 328 329 329 326 324 324 325 326 326 326 325 324 325 325 325 325 325 324 324 324 324 323 323 323 323 323 323
305 304 305 304 305 305 306 305 303 304 304 303 304 304 304 304 304 304 304 304 304 304 304 303 303 303 303 303 303 302 302 301 300 300 300 301 301 302 302 303 304 307 311 312 313 315 316 321 324 324 326 328 331 334 335 336 337 336 335 335 335 335 335 334 333 333 332 333 332 330 329 330 329 328 326 325 325 326 326 325 325 325 325 325 325 325 325 325 324 324 324 324 324 323 323 323 323
305 305 305 305 304 305 306 305 304 305 304 304 305 305 304 303 303 303 303 303 303 303 303 302 301 301 301 301 300 300 300 299 299 299 299 299 299 299 300 300 300 302 305 308 311 311 311 314 318 320 322 323 325 328 329 332 334 335 335 334 334 334 334 334 334 333 331 331 332 331 330 329 329 328 327 326 326 326 326 325 324 325 325 325 325 325 325 325 325 324 324 324 324 324 323 323 323
306 305 304 306 305 306 306 304 305 305 305 305 305 305 304 303 303 303 303 303 303 302 301 300 299 298 298 298 298 298 298 297 298 298 298 298 298 298 298 298 298 299 301 304 307 308 305 307 312 315 315 316 321 325 326 327 330 332 333 333 333 334 334 334 335 334 332 331 331 331 331 330 328 327 327 327 327 327 327 326 325 324 324 325 325 325 325 325 325 324 324 324 324 324 324 324 323
305 305 304 305 305 306 306 303 305 306 305 304 304 304 304 303 302 302 303 302 302 302 300 299 298 297 297 297 297 297 296 296 297 297 296 296 296 296 297 297 297 297 297 298 301 301 299 301 305 307 308 311 315 320 321 322 324 327 330 331 332 332 332 333 333 333 333 332 331 330 330 330 328 327 327 327 327 327 327 327 326 325 324 325 325 326 326 325 325 324 324 324 324 324 324 324 324
305 305 305 305 305 306 305 304 306 307 305 304 303 304 304 303 302 302 302 302 302 301 300 299 298 297 297 297 297 296 296 296 296 296 296 295 295 295 295 295 295 296 295 295 296 296 296 298 299 300 303 306 310 314 316 317 319 323 327 329 330 332 332 332 332 331 332 332 332 330 329 328 328 327 327 327 327 327 327 327 327 326 325 325 325 325 326 326 326 325 325 324 324 324 324 324 324
306 305 306 306 306 307 306 305 306 306 305 304 303 303 303 303 302 302 302 302 301 301 300 299 298 297 297 297 297 296 296 296 295 295 295 295 295 295 294 294 294 294 294 294 295 295 295 296 296 298 300 301 304 310 312 311 314 318 323 325 327 329 329 329 329 329 330 331 331 332 331 329 328 327 327 327 328 327 327 327 327 327 326 325 325 326 326 326 326 326 325 325 324 324 324 324 323
304 305 307 307 307 308 308 307 306 306 306 304 303 303 303 303 302 302 302 302 301 300 301 300 299 298 297 297 296 296 296 295 295 295 295 294 294 294 294 294 293 293 294 294 294 294 294 294 294 295 297 298 301 306 307 306 311 317 319 322 324 324 323 323 323 324 326 329 330 331 332 331 329 328 327 327 327 327 327 327 327 327 327 326 325 326 327 326 326 326 325 325 324 324 324 324 323
303 306 308 306 306 307 308 308 307 307 307 305 305 304 303 302 302 302 302 303 301 300 301 301 300 298 297 297 296 296 296 295 295 294 294 294 293 294 293 293 293 292 293 293 293 293 293 293 293 294 294 296 298 302 304 303 306 313 316 318 319 318 317 316 316 316 318 321 324 327 329 329 329 329 329 327 327 327 327 327 327 327 327 326 325 326 326 326 326 326 326 325 325 325 325 324 324
303 306 307 305 306 307 307 308 308 308 307 305 307 306 304 303 302 302 301 302 302 300 300 300 300 298 297 296 296 296 296 295 295 294 294 294 293 293 292 292 292 292 292 292 292 292 292 292 292 293 293 294 295 297 301 301 300 303 306 307 307 307 307 307 307 308 309 312 314 319 322 323 324 326 327 328 328 328 327 328 328 328 328 327 326 326 326 326 326 326 326 326 325 325 325 325 324
304 303 304 303 306 307 307 309 308 308 306 304 306 306 304 303 302 301 301 300 301 300 300 299 299 298 297 296 295 295 295 295 295 295 294 293 293 292 292 292 292 292 291 291 291 291 291 291 291 292 292 293 294 294 296 298 297 297 298 299 300 301 302 302 302 302 304 306 307 312 316 317 318 318 320 322 323 325 326 327 327 328 328 327 327 326 326 326 326 326 327 326 326 326 326 325 324
305 301 301 303 305 306 307 308 306 305 305 304 305 305 303 302 301 300 300 300 301 300 299 298 298 298 297 297 296 295 295 295 295 294 294 293 292 292 292 291 291 291 291 290 290 290 291 291 291 291 291 292 292 293 293 295 295 295 296 296 297 298 299 300 299 300 303 303 303 307 311 312 313 313 315 316 316 318 320 323 325 327 327 327 327 327 327 327 326 326 327 327 327 326 326 326 325
305 302 302 304 306 307 308 308 305 305 306 305 306 305 303 302 301 299 299 300 301 300 300 299 297 297 297 297 297 295 295 295 294 293 293 292 292 292 291 291 291 290 290 290 290 290 290 290 290 291 290 291 291 292 292 293 293 294 294 295 295 296 297 298 298 297 300 301 300 302 305 305 307 309 310 312 312 313 315 317 320 323 325 327 327 327 327 327 327 327 327 327 327 327 327 326 326
302 301 302 305 306 307 308 309 307 306 306 304 304 305 304 302 301 299 299 300 300 301 300 299 298 297 296 296 296 295 295 295 294 293 292 292 291 291 291 291 290 290 290 289 289 289 289 289 290 290 290 290 290 291 291 292 292 292 293 294 294 294 295 296 297 296 296 297 297 299 300 299 301 302 304 306 307 309 311 313 315 317 320 323 326 328 327 327 327 327 327 327 327 327 327 327 327
300 301 304 307 306 306 307 307 306 308 308 304 302 302 304 303 301 299 299 299 299 300 299 298 298 298 297 296 295 294 293 293 293 292 292 291 291 290 290 290 290 290 289 289 289 288 288 289 289 289 290 290 290 290 291 291 291 292 292 292 293 293 294 295 296 295 295 295 296 297 297 297 296 297 299 300 302 304 306 309 310 312 314 317 320 324 326 328 327 327 327 327 327 327 327 327 327
298 300 304 308 307 308 310 309 307 309 309 306 302 301 303 305 302 300 299 298 297 298 299 298 298 298 298 297 296 295 294 293 292 292 291 290 290 290 289 289 289 289 289 289 288 288 288 288 288 288 289 289 289 289 290 290 290 291 291 291 291 292 293 293 294 294 294 294 295 295 296 295 295 295 295 295 296 298 300 303 305 307 309 311 312 315 320 324 326 327 327 327 327 328 327 328 328
298 300 306 311 309 309 312 309 308 310 309 306 304 303 303 304 303 302 300 299 297 297 298 298 297 297 297 297 297 296 295 294 293 291 290 290 289 289 289 289 289 289 289 289 288 288 287 287 288 288 288 288 288 289 289 289 290 290 290 291 291 291 291 292 292 293 293 292 293 294 294 294 293 293 294 293 293 293 294 297 299 301 303 304 306 308 312 317 321 325 326 327 327 327 328 328 328
298 300 305 311 311 312 312 305 304 309 308 305 304 304 304 304 303 303 301 300 297 297 297 298 298 297 297 297 296 296 296 295 294 291 289 289 289 289 289 288 288 288 288 288 288 288 287 287 287 287 287 287 288 288 288 289 289 289 289 290 290 290 290 290 291 291 291 291 291 292 292 292 292 292 292 292 291 291 291 293 294 296 297 299 301 303 306 309 312 317 322 326 327 327 327 327 328
300 299 302 305 304 308 310 305 305 308 307 306 305 305 307 305 303 303 302 300 298 297 298 298 299 298 297 297 296 296 295 294 294 291 289 289 289 289 288 288 288 288 288 288 288 288 287 287 287 287 287 287 287 287 287 288 288 288 289 289 289 289 289 289 290 290 290 290 290 291 291 291 290 290 290 290 290 290 290 291 292 293 293 295 297 299 301 304 306 308 313 318 323 326 327 327 328
301 299 301 300 297 302 306 304 304 305 305 307 307 306 305 303 303 303 302 300 298 298 298 298 298 299 299 299 297 297 296 295 295 293 290 289 289 288 288 288 288 288 288 288 288 288 288 287 287 287 287 287 287 287 287 287 287 288 288 288 288 288 288 288 289 289 289 289 290 290 290 289 289 289 289 289 289 289 290 290 291 291 291 292 293 294 296 299 301 304 307 310 314 319 323 326 327
301 300 298 294 294 300 304 301 300 301 302 305 307 307 305 304 304 303 302 301 299 298 298 298 299 299 299 299 298 297 296 295 295 293 290 289 289 289 288 288 288 288 288 288 287 287 287 287 287 286 286 287 286 286 286 286 286 287 287 287 288 288 288 288 288 288 288 288 289 289 289 289 288 288 288 288 288 288 288 289 290 290 290 291 291 291 292 294 296 299 302 304 306 309 313 318 323
298 298 295 293 296 300 301 301 304 304 300 301 305 307 308 308 306 303 301 301 301 300 298 298 299 299 299 300 299 298 297 296 294 292 290 289 289 289 288 288 288 288 288 288 287 287 287 287 287 287 286 286 286 286 286 286 286 286 286 286 287 287 287 287 287 287 287 288 288 288 288 288 288 288 288 287 287 287 287 287 288 289 289 290 290 290 291 292 293 295 296 299 301 304 306 310 315
296 296 295 295 299 301 301 301 303 301 298 299 302 301 301 306 307 304 302 302 301 300 300 299 298 299 300 301 301 299 298 297 295 293 290 289 289 289 289 288 288 288 288 288 287 287 287 287 287 287 286 286 286 286 286 286 286 286 286 286 286 287 287 287 287 287 287 287 287 288 288 288 287 287 287 286 286 287 286 287 287 287 288 288 289 289 290 291 293 294 294 295 298 301 304 306 309
297 297 297 298 298 298 299 298 297 297 296 296 300 301 301 304 306 306 304 301 299 300 300 299 298 299 300 300 300 301 300 298 297 295 291 289 289 289 288 288 288 288 288 287 287 287 287 287 287 287 286 286 286 286 286 286 286 285 285 285 285 286 286 286 286 286 286 286 286 287 287 287 287 287 286 286 286 286 286 286 286 287 287 287 287 288 289 290 291 292 293 295 297 300 302 302 303
298 298 297 298 297 296 297 295 294 296 296 295 297 301 304 303 303 306 306 300 299 300 299 298 298 299 299 300 300 301 300 300 299 295 291 289 290 289 288 288 288 288 288 287 287 287 287 287 287 287 287 286 286 286 286 286 285 285 285 285 285 285 285 285 285 286 286 286 286 286 287 287 287 287 286 286 286 286 286 286 286 286 286 287 287 287 288 288 289 290 291 294 297 299 298 297 297
299 298 296 296 296 297 298 295 295 296 295 296 297 299 304 302 298 302 305 300 298 298 298 298 298 298 298 299 299 299 300 301 299 293 290 290 290 289 288 288 288 288 287 287 287 287 287 287 287 287 287 286 286 286 286 286 285 285 285 285 285 285 285 285 285 285 285 285 285 285 286 286 286 286 286 286 285 286 286 286 286 286 286 286 286 286 287 287 288 289 290 293 294 294 294 294 295
Wind_Speed
14 13 12 11 12 9 6 3 1 2 2 1 3 1 4 4 1 4 7 6 1 3 4 2 2 1 2 4 7 6 3 3 3 4 3 3 11 26 28 16 17 29 32 32 30 29 28 27 26 24 23 22 22 22 21 21 22 22 21 21 20 19 19 18 18 18 18 18 18 16 15 16 15 14 14 14 14 16 18 18 18 17 18 19 15 14 15 16 17 16 14 14 15 17 17 17 16
15 13 11 9 8 4 1 3 2 2 3 2 3 3 4 2 2 5 7 5 3 4 3 3 2 5 5 5 7 5 3 1 2 3 1 7 16 23 24 16 20 30 32 33 31 30 29 27 26 25 24 23 23 22 22 21 21 21 20 20 20 19 19 18 18 18 19 19 18 16 16 16 15 14 14 13 13 14 17 18 17 17 18 19 17 15 14 14 15 15 14 14 15 16 16 15 15
15 12 11 6 4 3 1 3 2 1 3 2 4 4 3 3 3 6 7 6 6 5 4 3 2 4 5 7 4 4 0 2 2 1 3 13 15 19 23 16 21 29 32 33 32 31 29 28 27 25 24 23 23 23 22 21 21 21 20 20 19 20 19 18 18 18 19 20 17 16 16 16 16 15 14 14 14 15 17 17 15 16 17 18 17 15 14 13 13 13 12 12 13 14 14 14 14
12 10 9 5 3 3 3 2 2 4 3 4 3 4 2 2 5 5 5 6 7 3 2 3 3 0 4 6 2 3 1 2 2 2 4 11 12 23 26 18 24 29 32 33 32 32 29 28 27 26 24 23 23 23 22 22 22 21 20 20 19 19 19 18 17 19 20 19 17 17 17 16 16 15 14 15 15 15 16 16 15 16 17 17 16 14 14 13 13 12 11 10 11 11 13 13 14
10 7 4 3 3 1 2 1 2 4 4 4 2 5 3 2 1 5 6 5 6 1 2 1 2 2 3 4 2 3 2 1 3 4 7 10 13 26 27 22 28 30 32 32 32 32 30 29 27 26 25 22 23 23 23 23 22 21 20 20 19 19 18 18 18 19 20 19 17 17 17 17 17 15 15 16 16 16 16 16 16 17 17 16 15 13 13 12 12 12 11 9 9 10 11 12 13
8 5 3 2 2 1 2 1 2 3 5 4 3 4 3 1 4 4 5 6 6 3 2 3 1 1 3 2 1 2 2 1 3 6 11 14 18 27 27 27 30 30 31 31 31 32 30 29 27 26 24 23 22 22 24 23 22 21 21 20 20 19 18 18 19 19 19 18 17 16 17 18 17 16 16 16 17 17 17 17 17 16 16 15 14 13 12 11 11 11 11 10 9 8 9 11 13
9 4 3 2 1 1 3 3 4 4 4 4 4 3 1 4 6 5 7 6 6 6 3 1 2 4 2 2 1 4 5 1 3 7 14 19 24 28 28 29 30 30 30 30 31 30 30 28 27 26 24 23 22 22 24 24 22 22 21 21 20 18 18 19 20 20 19 18 17 16 18 19 18 17 17 17 17 17 17 17 17 16 15 14 13 12 11 10 9 8 9 9 9 8 8 9 11
6 1 1 3 1 2 2 3 4 4 4 4 5 5 2 4 6 6 8 6 4 4 3 2 2 5 1 2 1 5 7 2 4 9 17 23 28 29 29 31 31 30 29 31 31 30 29 27 26 26 25 24 22 23 23 23 23 23 23 22 20 18 18 20 20 20 19 18 17 17 19 19 18 18 17 17 17 17 17 16 16 15 14 13 11 10 9 8 7 5 5 7 9 8 8 8 10
3 2 1 3 2 0 1 2 3 3 4 5 6 8 6 5 6 6 7 7 5 3 2 5 3 4 1 5 2 5 7 4 7 13 19 26 30 30 31 31 30 29 29 31 31 30 29 27 26 26 25 23 22 23 23 23 23 24 25 23 21 19 20 20 20 20 19 18 18 19 20 19 18 19 19 17 16 15 15 15 15 13 13 12 11 9 8 7 6 5 4 5 8 9 9 9 10
3 2 2 2 2 2 3 3 3 3 4 5 6 10 8 8 8 7 7 8 7 3 4 4 2 3 3 3 1 3 3 8 14 17 22 27 29 30 31 30 27 27 29 31 31 31 29 27 26 26 25 23 23 23 22 24 24 25 26 24 22 20 20 20 20 20 19 18 18 20 21 20 19 18 18 17 16 15 14 14 13 12 11 10 9 7 7 7 6 6 6 6 8 10 9 9 9
2 3 2 2 2 4 5 4 3 4 4 4 6 7 6 10 9 8 8 8 7 3 4 2 1 3 4 1 3 1 4 13 18 20 23 26 27 29 29 28 25 24 27 31 32 31 30 27 26 25 24 24 24 23 23 25 25 26 26 24 22 21 20 19 19 19 18 17 18 21 22 21 20 17 17 16 16 15 15 12 10 9 7 7 6 6 7 6 5 6 8 9 10 10 10 9 9
3 1 3 2 3 3 4 3 3 4 5 4 5 6 8 10 6 8 10 9 8 5 5 3 3 3 4 1 2 1 6 14 19 20 23 25 26 27 27 28 25 22 24 29 32 31 30 28 26 25 23 24 25 23 23 24 25 25 25 23 22 21 19 18 17 17 17 17 18 21 22 21 19 17 17 16 15 14 13 11 8 6 5 5 6 7 7 6 6 7 8 10 11 11 10 11 10
3 1 4 2 3 3 3 2 3 2 4 3 4 8 10 7 6 10 11 9 7 6 7 6 2 5 3 2 1 0 6 13 17 21 22 23 25 25 26 27 25 23 24 28 30 30 30 29 27 25 23 24 25 24 23 24 24 24 23 22 21 19 18 17 16 15 16 16 18 21 22 21 19 18 16 15 13 12 11 9 8 7 6 6 7 8 8 6 7 9 9 9 10 11 11 12 11
1 2 4 2 0 2 3 2 2 1 3 2 5 10 9 4 7 9 7 10 7 6 5 4 3 5 2 1 0 2 6 13 17 21 21 20 24 25 26 27 25 24 24 26 28 29 30 29 28 27 24 24 25 24 24 24 23 23 22 21 20 19 17 16 15 14 15 16 18 22 23 21 20 18 15 14 12 11 9 8 8 8 7 8 9 9 8 7 8 9 9 8 9 12 13 12 11
1 1 4 2 2 1 2 2 2 3 3 5 8 11 9 1 8 10 8 9 9 7 5 5 6 1 2 4 4 4 11 16 19 21 19 19 25 26 26 27 26 26 25 26 27 29 30 30 29 27 25 25 25 24 24 24 23 23 22 21 20 18 17 15 15 15 16 17 19 23 24 21 20 18 16 14 12 11 9 8 8 8 8 10 10 10 8 7 8 10 9 8 8 11 13 13 11
2 2 4 3 1 0 1 2 2 2 2 7 8 11 11 4 7 8 8 6 6 8 8 9 9 4 2 3 5 10 17 18 19 19 18 20 24 26 26 28 27 27 26 26 27 28 30 30 29 28 26 25 25 24 24 25 24 23 22 21 20 18 17 16 16 16 17 18 19 23 24 21 19 18 16 14 12 11 10 10 9 9 10 12 12 11 10 8 10 11 10 9 8 8 11 13 12
3 4 4 3 1 1 2 3 4 3 4 8 9 10 10 9 10 7 9 6 3 7 10 10 11 8 4 7 2 16 22 19 19 17 19 22 24 23 24 26 26 26 25 27 28 29 30 30 30 28 26 25 26 25 23 24 24 24 22 21 19 18 17 16 17 18 18 19 19 21 22 21 19 18 17 14 13 11 11 11 9 10 12 13 12 11 11 10 11 12 11 10 9 8 9 10 11
4 3 3 2 1 2 3 4 3 4 5 8 8 9 8 8 12 10 10 10 8 8 11 12 13 15 14 16 12 14 18 19 20 19 21 20 20 20 20 24 25 25 25 26 27 28 31 30 30 28 27 25 26 26 24 23 23 23 22 21 19 18 17 18 19 20 20 20 20 20 20 20 19 18 17 15 13 12 11 11 9 10 14 14 13 13 11 11 12 11 11 11 10 9 10 9 9
3 3 3 3 1 2 3 5 4 4 5 7 7 8 6 5 10 8 8 12 11 10 12 14 15 16 16 19 19 10 8 11 13 15 18 17 18 18 18 20 23 24 25 25 26 27 29 30 30 29 28 26 26 26 25 23 21 22 22 21 20 19 19 19 20 21 22 21 20 20 20 20 19 19 17 15 14 13 11 11 9 10 13 16 15 15 13 12 12 11 11 11 11 11 11 10 10
3 3 3 2 1 2 3 6 5 5 5 7 7 7 5 5 8 5 7 10 9 9 9 12 13 14 12 11 17 17 10 3 3 6 9 12 15 17 19 19 21 24 25 25 25 27 27 29 29 29 28 27 26 26 25 24 22 21 22 21 21 21 20 21 22 22 22 21 20 20 20 20 20 19 17 16 14 13 12 11 11 10 12 15 16 17 15 14 14 13 12 12 12 12 12 11 12
3 4 4 2 3 2 3 5 5 6 5 6 6 7 7 7 6 4 6 8 7 6 6 8 9 12 12 6 6 9 11 9 4 1 2 6 9 12 17 19 20 22 24 24 25 27 27 27 28 28 29 28 27 26 26 25 23 22 22 22 22 22 22 22 22 22 22 22 21 21 20 20 20 19 17 16 15 14 13 12 12 12 13 15 16 16 16 16 16 15 15 14 14 14 13 13 13
2 3 4 3 4 3 2 3 5 6 5 7 7 6 6 7 6 3 3 4 5 5 7 8 6 7 12 5 4 4 6 9 9 7 6 2 6 10 12 15 19 21 23 25 25 26 27 28 27 27 28 28 27 26 26 26 25 24 23 23 22 23 24 24 24 23 23 23 22 21 20 20 19 19 18 17 17 16 15 14 14 14 15 15 16 16 16 18 18 17 18 18 17 16 16 16 16
3 1 4 4 3 4 4 3 4 4 5 6 6 5 4 6 8 3 1 4 6 7 8 8 5 6 11 7 3 3 2 3 6 7 9 10 6 7 14 17 19 21 24 24 26 27 26 27 27 27 28 29 28 27 26 26 26 25 25 24 24 24 24 25 25 24 24 24 23 22 21 21 20 20 20 19 18 17 16 16 15 16 16 16 16 17 18 19 19 19 19 19 18 18 18 17 18
5 2 6 7 5 5 6 6 5 3 5 6 4 5 5 6 6 4 7 8 7 9 9 7 8 8 9 8 3 4 3 4 7 9 9 9 13 11 9 19 21 22 24 25 25 26 26 27 27 27 28 29 29 28 28 27 26 26 26 26 26 25 25 26 26 25 25 25 24 23 22 22 21 21 21 20 19 19 18 17 17 17 17 17 16 16 19 19 19 19 19 19 19 19 19 19 20
6 3 6 7 7 7 8 9 8 5 4 5 4 6 7 7 4 5 10 10 7 7 8 8 9 9 7 7 6 5 4 6 10 12 12 12 14 15 12 13 20 22 22 25 26 27 26 26 26 27 29 30 30 30 29 28 27 27 27 28 28 27 27 26 26 26 26 25 25 24 23 23 23 23 22 22 20 20 20 18 19 19 18 17 16 16 19 21 21 20 20 20 19 19 19 20 19
4 5 6 6 7 8 8 9 11 8 3 2 4 6 8 6 3 4 8 9 8 6 7 8 7 8 7 5 5 6 5 7 10 14 14 15 16 14 13 14 15 21 23 23 24 27 27 25 26 26 28 30 30 31 30 29 29 28 29 29 29 29 28 28 26 27 26 26 26 25 24 24 23 24 24 22 21 21 21 21 21 20 19 18 17 17 18 20 22 22 21 21 20 20 20 19 17
4 5 6 6 7 7 7 8 11 9 3 1 2 6 7 5 3 2 7 10 11 9 9 9 6 7 7 6 5 5 7 11 12 12 15 16 16 11 11 12 14 15 19 22 25 26 26 25 26 26 28 30 30 31 30 30 30 29 30 29 30 30 29 28 28 28 27 27 26 25 24 23 23 24 25 24 23 23 23 23 22 21 21 19 17 18 18 19 21 22 22 22 21 20 20 19 17
5 4 5 7 6 5 8 11 11 8 3 0 4 3 6 5 3 4 9 12 13 12 10 9 7 5 5 6 6 5 8 17 22 14 9 12 13 10 11 13 12 15 17 19 21 24 27 26 25 26 28 30 31 31 30 30 30 30 30 30 31 31 30 29 29 29 28 27 26 25 25 22 22 23 26 26 24 23 23 24 23 22 21 19 18 18 19 19 19 21 22 21 21 20 20 19 19
3 3 5 9 7 7 11 12 11 7 4 6 1 2 7 6 6 9 11 12 12 12 11 10 8 5 2 4 5 6 13 22 25 22 22 16 8 6 6 6 10 13 16 19 19 18 23 25 25 26 28 30 31 31 30 30 30 31 31 30 31 31 31 31 30 29 29 28 27 27 25 22 21 22 25 27 24 22 23 24 24 23 21 19 18 18 19 20 19 20 20 20 21 21 21 20 20
3 4 5 7 7 6 10 11 13 9 7 11 4 3 6 6 9 12 11 12 12 12 12 11 9 5 2 2 6 10 17 22 22 25 32 29 14 14 22 21 22 20 12 14 20 21 22 24 25 26 27 30 32 30 29 28 28 29 30 30 30 31 32 33 32 31 30 29 28 28 26 23 22 23 25 27 24 21 23 25 24 23 21 19 19 18 19 21 21 21 20 20 21 22 23 22 21
5 4 4 5 4 5 10 8 13 12 7 12 6 4 6 9 14 15 13 13 13 12 13 14 12 10 8 8 10 11 15 21 24 29 35 36 29 27 32 29 25 26 24 16 10 13 13 15 20 25 26 27 29 29 28 28 26 27 29 28 27 28 29 32 32 32 31 30 29 29 28 26 24 23 25 27 24 21 22 25 24 22 21 20 20 19 20 21 22 22 22 22 22 23 24 23 23
5 4 3 5 3 5 9 6 11 10 7 11 8 4 7 11 15 15 14 14 15 14 14 15 16 15 13 10 11 11 13 22 30 34 34 34 32 29 33 35 32 30 31 29 22 16 15 11 3 10 19 24 26 25 25 28 26 26 27 27 27 27 27 30 32 32 31 29 29 30 29 28 27 25 24 26 25 21 22 24 23 22 22 22 21 21 22 22 22 22 22 22 24 24 24 25 25
4 4 2 4 5 5 8 6 10 11 7 11 10 7 6 9 13 16 17 16 15 15 15 16 16 15 13 11 11 11 13 19 27 32 32 31 31 30 32 37 37 35 35 33 29 24 22 20 19 15 7 8 19 22 23 24 24 25 26 25 28 28 26 28 30 31 32 31 30 31 31 30 29 28 25 26 25 23 23 24 24 22 22 23 23 23 24 24 23 23 23 23 24 25 25 26 26
4 4 2 2 4 4 5 6 9 12 9 10 12 10 7 9 13 17 18 16 16 16 15 16 15 13 13 11 12 12 14 16 20 26 30 29 31 32 35 40 41 40 39 38 36 33 30 25 22 23 22 16 4 11 16 20 21 22 23 23 26 29 29 29 29 31 31 31 32 31 31 31 31 30 27 26 24 24 24 25 26 24 23 24 24 25 26 26 24 24 25 24 24 25 26 27 27
3 4 2 2 4 2 4 5 6 10 10 10 12 11 11 13 14 16 17 16 17 16 14 13 14 14 13 13 13 13 15 16 19 24 28 28 32 35 37 42 46 46 45 43 40 38 38 34 27 25 25 24 18 10 6 7 16 20 20 20 21 25 28 29 30 31 29 29 32 32 31 30 31 31 30 28 26 24 24 25 26 26 25 24 25 25 26 27 26 25 26 26 26 26 27 27 27
4 4 2 3 4 3 4 4 4 5 10 11 10 10 11 14 14 15 15 15 16 16 14 12 12 13 13 13 13 14 16 17 19 24 27 28 31 34 36 41 46 50 50 48 46 45 45 41 35 33 32 30 24 17 17 13 5 14 17 19 20 21 25 28 31 32 28 29 31 32 33 31 30 31 31 30 27 25 25 25 25 26 26 25 26 27 28 28 27 27 27 27 27 27 27 28 26
2 2 2 4 3 4 4 2 5 4 7 7 9 13 12 13 14 13 12 15 17 16 15 14 13 13 12 13 14 15 16 15 18 23 27 29 31 33 37 42 49 52 51 50 49 48 48 48 44 40 38 36 31 25 24 22 14 9 9 11 15 18 20 22 24 26 25 27 28 28 30 31 31 31 31 31 29 27 27 27 25 25 26 27 28 29 29 29 28 29 29 29 28 27 27 27 25
1 1 2 3 1 4 4 4 5 4 6 5 9 16 13 12 14 13 12 16 17 14 13 14 14 13 12 13 15 14 12 13 17 22 25 29 31 34 38 43 47 46 46 48 46 44 46 50 49 46 43 41 36 32 28 26 23 18 13 8 9 14 16 16 16 19 21 24 24 22 25 27 30 31 31 31 29 28 28 28 28 26 26 28 29 29 29 29 30 30 30 30 29 29 29 27 24
2 1 2 2 0 3 3 4 4 4 4 4 10 15 11 10 13 13 14 14 13 13 12 12 12 12 13 14 14 13 12 13 16 20 23 26 29 32 35 38 41 40 41 44 42 41 45 47 48 48 46 44 40 36 31 29 26 22 19 16 12 10 10 11 10 12 16 22 24 23 24 24 25 28 30 31 30 29 28 29 29 28 27 28 29 30 30 30 31 32 32 31 29 28 28 28 24
2 2 1 2 2 1 2 2 5 5 2 4 8 11 8 8 10 11 12 11 11 13 11 10 10 12 13 13 13 14 15 15 15 17 20 24 27 30 32 32 35 37 39 41 40 39 41 42 44 45 46 45 43 40 36 34 28 23 21 19 17 16 17 18 17 16 13 14 19 23 26 25 24 24 25 26 29 30 30 30 30 30 30 29 30 31 31 31 32 32 32 32 30 25 24 24 23
3 2 1 3 4 3 2 1 3 4 2 3 4 6 6 8 9 9 8 7 9 11 10 10 9 10 12 12 13 14 14 14 14 15 17 23 25 27 29 29 31 35 36 36 37 37 38 40 40 41 43 45 46 43 39 39 36 30 26 23 22 22 24 27 28 29 27 22 18 14 14 18 20 22 23 24 27 29 30 31 31 32 32 30 30 31 32 32 32 32 32 32 31 28 24 22 21
4 2 2 4 4 2 2 0 1 1 3 4 3 2 4 5 7 8 6 6 9 8 9 10 10 10 12 12 12 12 12 12 13 14 16 20 24 25 28 30 30 32 32 32 33 34 36 39 39 40 39 39 43 44 42 41 41 40 38 33 31 31 31 30 29 29 30 30 27 22 17 16 17 16 15 18 22 26 30 32 32 32 33 33 32 32 33 33 33 33 32 32 31 31 28 24 22
3 2 2 4 2 1 4 1 2 2 1 3 3 2 2 2 5 7 7 7 8 7 9 10 9 10 11 11 11 10 10 10 11 13 15 18 22 24 26 28 29 28 28 29 30 32 34 36 38 38 38 36 37 41 43 43 40 40 41 36 32 32 30 28 27 28 30 30 29 27 24 24 25 25 22 20 18 18 21 27 33 33 33 34 34 34 34 34 34 34 33 32 31 31 29 26 25
3 5 7 4 2 2 2 1 4 3 2 1 5 3 3 2 5 7 7 6 7 9 10 10 9 9 10 10 9 10 9 8 8 9 13 18 20 22 23 25 26 26 27 28 29 30 31 32 34 35 36 37 37 39 41 41 38 37 38 36 33 32 28 26 28 31 33 33 33 31 29 28 28 27 26 26 26 23 19 15 21 28 33 35 34 35 36 36 34 34 34 33 33 32 31 29 28
4 7 8 3 4 4 1 3 5 3 2 3 4 2 3 2 4 5 6 6 6 8 8 9 9 8 8 8 8 8 7 7 9 8 11 16 19 20 22 23 25 27 27 29 29 30 29 30 32 33 34 35 35 37 39 39 37 37 37 35 34 33 29 26 28 34 36 35 35 35 34 33 32 30 29 29 29 28 26 24 18 16 22 30 34 34 35 36 36 35 34 33 34 35 33 32 30
7 6 5 3 5 4 1 2 4 2 2 3 4 2 2 1 3 4 4 4 4 5 5 6 6 5 6 6 6 7 6 6 8 11 13 16 18 19 21 23 26 27 28 29 30 31 31 30 31 33 33 32 33 34 36 37 38 38 37 35 33 32 31 29 30 36 37 35 36 38 37 37 37 35 34 33 32 31 29 28 26 25 21 20 27 32 33 34 34 35 36 36 35 36 36 35 34
6 3 3 3 4 3 2 2 2 2 3 3 4 2 1 1 2 2 1 2 4 3 2 3 4 4 4 5 5 5 5 5 7 10 13 15 17 19 21 24 25 26 28 30 31 31 32 32 32 33 32 32 33 33 34 35 35 36 36 35 33 32 32 32 32 34 35 35 35 36 35 36 38 39 38 37 35 34 33 31 29 28 28 26 22 23 28 33 35 35 36 36 37 37 37 36 36
5 4 3 3 3 3 4 4 4 5 2 2 3 3 2 1 1 2 2 3 4 3 1 1 3 4 3 3 4 4 4 5 5 7 10 13 16 19 22 24 24 26 28 29 30 31 32 32 32 33 33 33 33 34 34 33 33 33 32 32 32 31 31 32 32 32 34 34 33 34 33 34 37 38 38 39 39 38 36 34 33 32 30 30 30 26 22 24 30 35 34 33 35 36 38 37 36
8 5 5 4 3 4 4 4 3 2 1 2 2 3 3 0 3 4 3 4 4 3 1 1 1 3 4 4 3 3 3 4 4 5 8 11 14 17 20 21 22 24 26 26 27 29 30 31 30 31 32 32 32 33 33 33 33 32 30 30 30 30 31 32 33 32 33 33 32 33 33 33 34 34 34 36 37 38 38 37 35 34 34 32 32 31 28 25 22 24 30 32 32 33 35 37 36
7 4 4 4 2 4 2 3 3 1 3 3 2 3 1 2 4 5 5 5 5 3 2 2 2 1 2 3 3 3 3 4 4 4 6 10 13 16 18 20 21 23 24 24 25 27 29 30 30 30 30 31 31 32 32 32 32 32 31 31 30 31 32 32 32 31 31 32 32 32 32 31 32 33 33 33 34 35 36 37 36 35 35 34 34 34 31 29 28 24 20 24 30 33 34 34 34
4 0 4 4 3 3 1 2 0 2 4 4 3 3 2 2 2 4 5 4 4 3 3 2 2 2 2 2 2 3 2 3 3 3 5 9 12 14 16 18 20 21 22 24 24 25 27 28 29 29 29 30 30 31 31 31 31 31 31 31 31 31 30 30 30 30 30 30 31 31 31 31 32 33 34 34 34 35 35 36 36 37 37 36 36 36 36 33 32 31 27 22 22 26 30 32 35
2 1 4 2 1 3 2 3 3 2 2 3 2 0 4 3 3 4 2 2 4 2 0 1 2 3 2 2 2 2 1 2 2 2 4 7 10 12 14 16 18 19 20 22 24 24 24 26 28 28 28 29 29 29 30 29 29 29 30 31 31 31 31 30 30 29 29 29 29 29 29 30 32 32 33 35 36 35 35 35 35 36 37 38 38 38 37 37 36 34 31 30 28 25 23 25 29
2 3 2 3 2 5 2 1 1 1 1 3 1 1 3 2 3 5 3 3 5 4 3 2 4 5 4 3 4 3 2 2 2 1 3 5 8 12 14 16 18 19 20 21 22 23 22 23 25 27 27 28 28 28 28 28 29 29 29 29 29 30 30 30 29 29 29 29 29 29 29 30 32 32 33 35 36 36 36 36 35 35 35 36 38 39 39 38 38 36 34 33 31 31 30 28 26
2 3 2 3 1 3 2 1 4 4 1 3 2 2 3 1 1 4 4 5 7 6 5 5 5 5 4 4 5 4 4 3 2 1 2 4 7 11 14 16 16 18 18 19 21 22 22 22 23 25 26 27 27 27 28 28 28 28 28 28 28 28 28 28 28 28 28 29 29 29 30 31 32 32 33 35 36 37 38 38 37 36 36 36 36 38 39 38 38 37 36 35 33 33 32 31 29
3 1 1 1 3 3 2 3 2 3 2 4 5 3 2 3 3 3 6 8 8 7 6 5 5 5 5 5 5 5 5 4 3 2 1 3 6 9 12 14 14 15 16 17 18 20 21 21 21 23 25 25 25 25 27 27 27 27 27 27 27 26 26 27 27 27 28 29 29 29 29 30 32 33 34 36 37 38 38 38 39 38 38 38 38 38 37 37 37 37 37 37 36 35 34 33 32
3 3 3 2 3 2 1 2 1 1 0 3 4 5 2 4 4 5 9 10 8 7 6 6 6 6 5 5 5 5 5 4 4 4 3 0 3 6 9 11 12 14 15 15 16 18 20 20 20 21 23 25 25 25 25 26 26 26 27 27 27 26 26 27 26 26 27 28 29 29 29 30 31 32 34 35 36 37 37 38 38 38 39 39 40 39 38 37 36 36 36 37 36 35 35 34 34
3 4 4 3 2 2 1 1 2 3 2 1 1 4 5 5 3 6 9 8 8 8 7 7 7 6 6 5 5 5 5 5 5 5 4 2 2 3 6 8 10 11 13 15 15 17 18 19 19 19 21 24 25 25 24 25 26 25 26 26 26 27 26 27 27 27 27 28 29 29 29 30 31 32 34 35 35 36 36 37 37 37 38 39 39 40 39 38 38 37 36 35 35 35 35 36 37
2 2 2 0 1 3 3 2 3 2 2 3 2 3 7 5 3 5 7 7 8 8 7 7 7 7 7 6 6 5 5 5 5 6 7 5 3 1 3 6 7 10 12 13 15 16 18 19 19 19 19 22 24 24 23 24 25 25 25 25 26 26 27 27 28 28 28 29 30 30 29 30 31 32 33 34 35 35 35 36 36 36 37 37 38 38 39 38 38 37 36 34 34 35 36 38 38
Wind_Direction
334 334 337 332 327 333 346 65 70 318 90 285 270 220 258 223 242 309 309 297 270 266 255 267 294 68 92 125 147 149 109 156 163 135 192 246 158 161 167 167 167 167 168 170 167 166 166 165 167 166 167 165 163 162 161 164 165 163 161 159 156 155 155 155 155 153 152 146 146 156 154 149 148 145 148 152 154 153 147 147 148 153 148 140 139 137 142 141 133 134 136 134 130 129 129 126 123
338 337 340 336 335 359 300 78 98 309 63 305 272 184 252 348 356 279 265 262 219 238 264 238 140 75 65 101 121 99 40 333 181 163 148 127 140 160 169 171 168 167 168 169 167 166 167 167 166 167 167 166 164 164 163 163 165 164 162 160 158 157 156 157 157 157 156 148 148 157 157 153 150 148 151 153 157 155 152 154 154 153 147 140 137 130 130 133 131 134 137 135 128 130 133 129 126
339 340 343 357 3 37 36 42 104 164 108 234 266 227 277 354 270 244 232 236 243 257 285 286 74 82 52 55 79 93 92 300 166 147 98 138 142 165 174 172 169 169 169 168 168 167 167 166 166 168 167 166 165 164 164 164 165 164 163 162 160 159 157 158 159 160 156 150 151 156 156 152 150 150 151 152 154 154 155 158 154 150 146 142 137 130 126 123 121 123 127 126 122 128 135 133 130
337 344 344 13 41 28 59 51 148 147 161 213 261 264 265 249 242 248 239 248 268 279 301 336 24 290 73 78 117 104 151 286 187 166 135 167 166 168 172 170 170 169 168 169 169 168 167 166 166 168 167 166 166 164 164 165 164 164 164 163 162 161 159 160 161 159 154 153 156 157 155 151 148 148 150 152 151 150 153 155 150 148 146 141 135 126 123 123 120 118 120 121 120 126 133 135 134
333 353 355 54 90 65 95 120 127 149 198 191 227 268 236 185 287 288 282 290 296 12 93 64 17 296 71 94 151 115 169 128 200 199 148 175 175 166 170 169 168 167 168 170 170 169 167 167 168 168 166 164 165 164 164 165 164 166 165 164 165 164 162 161 159 157 156 158 159 156 154 151 147 146 148 148 150 148 148 148 144 144 142 137 131 123 119 123 123 123 125 126 126 128 133 139 140
343 21 62 76 98 140 113 179 179 198 226 181 209 258 222 17 11 309 305 320 320 343 80 90 68 33 58 1 84 98 276 128 175 203 161 164 170 166 168 168 167 167 169 171 171 169 167 168 169 167 165 163 164 165 164 165 165 166 167 167 167 166 165 161 159 159 160 161 159 155 154 150 145 145 145 143 145 145 143 142 139 139 137 132 128 125 122 122 121 126 132 132 133 135 139 143 146
351 22 59 62 31 68 117 196 202 216 247 200 222 252 191 341 346 339 329 330 331 320 351 97 137 89 67 308 72 13 349 187 176 189 171 161 165 165 166 167 166 167 169 171 172 169 168 169 169 165 163 163 165 166 165 165 167 167 168 169 168 168 167 162 161 164 164 164 161 157 155 149 145 144 142 142 141 141 141 140 140 138 135 133 132 131 131 134 131 132 139 142 143 144 148 149 153
354 55 50 95 80 25 130 209 216 206 250 251 264 273 268 318 316 318 310 310 302 292 333 283 129 94 297 37 90 337 21 103 186 175 169 159 161 164 165 166 165 166 170 171 172 170 168 170 168 165 164 164 165 166 166 166 168 168 170 170 168 169 169 166 165 167 167 166 164 161 157 149 146 145 142 143 142 141 142 142 143 139 137 139 140 148 154 157 155 148 151 158 157 157 160 159 165
48 111 39 106 126 104 190 234 240 220 257 277 283 287 293 286 276 281 281 292 283 249 267 240 130 108 238 49 63 301 25 85 155 160 162 160 162 163 164 166 165 167 170 171 171 170 169 171 169 166 166 166 165 165 165 166 168 169 171 171 170 169 169 170 169 170 171 171 168 164 158 151 149 148 145 145 144 143 144 144 145 142 144 147 149 163 169 164 169 181 189 182 170 167 170 175 179
55 30 123 109 120 169 251 238 237 243 255 265 276 283 296 302 289 280 270 274 271 247 257 239 104 108 133 73 284 294 49 124 140 147 157 161 162 162 164 167 166 166 170 172 172 171 170 171 170 169 168 167 166 165 167 166 166 169 171 172 171 170 172 175 175 175 175 174 172 166 159 156 158 156 152 151 148 148 148 148 151 152 154 158 163 174 174 171 190 203 201 195 182 172 173 183 188
58 340 113 108 137 176 229 225 247 262 281 301 289 286 320 323 306 285 274 265 263 248 265 272 139 138 98 87 253 265 141 141 140 145 157 161 162 163 164 165 164 166 171 173 173 173 172 172 172 172 170 170 168 167 170 167 166 169 171 172 172 173 176 178 179 179 178 176 174 168 162 162 166 165 162 162 160 158 157 157 159 164 167 172 178 186 181 188 211 203 191 185 180 175 173 183 190
103 325 79 117 177 196 211 206 254 267 304 319 312 329 343 324 330 321 294 266 258 253 243 206 182 131 88 297 248 217 147 147 145 148 160 163 163 165 164 165 163 167 173 174 174 174 173 173 174 174 174 173 169 170 174 170 169 170 171 172 174 178 180 181 181 182 181 178 175 170 167 167 169 170 169 170 168 165 164 166 171 180 191 193 194 195 194 202 207 192 181 174 176 177 176 184 192
110 154 95 139 190 178 176 189 242 281 313 301 324 336 334 327 9 340 310 289 255 243 239 203 159 91 96 276 269 206 155 157 152 150 161 165 166 166 165 165 164 170 173 173 176 177 176 175 176 176 177 176 171 174 177 174 172 171 172 174 178 182 183 185 184 186 186 181 177 174 173 170 171 174 174 173 171 172 172 175 183 194 204 204 203 198 199 205 200 191 181 177 182 185 185 189 195
100 160 111 167 217 125 165 208 245 252 262 300 355 339 332 349 1 330 339 340 286 246 245 190 118 100 106 285 289 258 181 166 156 152 155 164 170 167 166 166 166 172 172 174 177 178 178 178 179 179 179 179 175 178 180 176 175 175 177 179 182 186 187 190 190 192 191 185 179 175 177 174 174 180 180 180 180 181 183 186 191 198 206 205 203 197 195 203 203 197 192 192 192 194 197 197 197
83 130 92 112 11 22 185 220 241 207 235 352 358 336 330 7 358 339 12 358 295 297 332 23 30 47 172 176 207 220 180 166 158 157 153 157 167 166 167 167 169 173 173 175 178 180 181 181 182 182 182 181 179 183 184 179 179 181 183 185 187 189 192 193 193 195 193 187 181 177 179 178 180 186 188 188 188 190 192 194 195 199 206 203 202 200 199 205 207 204 201 201 195 197 206 208 206
82 96 69 74 20 294 233 325 358 224 249 354 344 340 340 327 3 344 337 330 279 335 16 25 11 341 216 215 230 173 163 161 154 157 151 148 156 161 164 165 170 173 174 177 180 182 182 183 184 185 185 183 183 185 187 184 184 187 187 189 191 193 195 195 194 194 194 188 182 178 179 184 187 190 194 196 195 197 198 196 198 201 206 206 205 204 203 205 208 211 212 211 206 204 209 210 209
46 77 68 64 102 118 16 15 20 309 290 344 341 354 352 326 346 334 318 333 310 3 36 24 11 16 9 341 349 148 152 156 153 150 142 140 143 148 156 161 167 168 173 178 180 183 182 184 186 188 189 187 187 188 189 189 189 190 190 192 193 194 194 193 190 190 191 186 182 180 181 188 193 193 197 201 201 203 204 204 206 207 207 208 211 210 208 207 209 215 218 217 215 215 217 215 213
37 80 87 114 82 39 26 38 18 320 317 341 342 349 356 341 340 334 337 350 348 11 30 11 12 19 15 14 36 125 146 154 155 147 138 140 141 143 153 159 164 168 172 177 179 181 181 185 187 189 191 190 190 190 192 192 192 193 192 193 192 191 190 187 187 187 187 184 184 185 186 191 196 198 201 204 207 209 210 213 214 213 210 208 213 215 212 211 214 219 222 221 220 218 224 230 228
55 94 83 121 57 331 29 46 21 353 324 330 344 341 353 356 333 338 352 336 343 18 14 360 9 9 7 9 14 41 108 140 152 148 143 148 151 149 157 161 166 169 172 176 178 181 182 186 189 191 191 191 193 192 193 194 194 193 193 192 189 188 189 187 187 187 187 188 189 190 191 194 199 203 206 209 214 216 219 224 224 221 216 212 213 216 218 218 217 222 226 224 223 223 227 239 241
47 78 65 70 342 290 26 44 14 346 327 333 344 335 342 345 333 345 352 329 344 27 12 358 358 349 350 349 351 2 9 42 133 151 147 154 160 158 160 165 169 171 174 176 177 181 185 188 190 193 192 192 193 194 195 196 197 195 195 193 191 191 190 190 190 189 191 193 193 194 197 198 203 208 211 215 221 225 228 231 229 225 219 217 216 216 220 220 218 224 228 226 226 229 230 240 246
16 75 82 334 335 342 13 30 356 336 334 335 333 338 340 332 334 345 360 349 337 355 0 353 338 327 336 327 316 337 336 336 345 290 196 155 161 165 166 170 172 172 173 175 178 182 187 191 192 193 195 194 193 195 196 198 199 198 198 197 196 195 194 193 193 193 195 197 196 198 201 203 207 211 216 222 226 230 231 229 225 222 219 220 218 217 220 217 217 222 224 227 232 237 238 243 250
24 68 79 351 353 349 334 24 345 328 334 334 339 347 332 317 322 319 17 0 292 304 320 321 321 322 331 316 238 284 329 335 334 324 307 244 172 166 168 170 170 173 173 175 181 185 190 195 196 196 196 196 195 197 198 199 201 201 202 201 200 198 197 197 197 198 199 200 200 202 204 208 213 217 222 227 229 229 229 229 225 222 221 222 221 220 221 217 220 223 223 229 235 240 244 248 254
63 356 9 1 358 320 314 358 331 328 344 331 330 324 313 325 320 292 285 286 265 276 286 292 302 322 334 333 245 266 313 311 308 308 311 308 282 191 172 171 171 175 178 181 185 187 193 197 199 198 197 199 199 200 201 201 203 205 206 204 204 202 201 201 202 204 204 204 204 206 209 212 216 219 222 225 227 228 229 230 227 225 223 224 227 226 223 221 225 227 227 231 235 240 245 250 256
56 337 329 339 334 313 312 326 314 321 314 289 306 326 327 324 316 326 313 292 274 276 280 287 302 315 340 349 299 268 259 241 257 254 258 279 289 282 205 177 175 178 181 186 190 190 195 198 200 200 200 201 201 203 204 204 204 206 208 208 209 208 206 207 207 207 206 207 207 209 213 215 218 219 222 224 226 228 230 230 228 227 226 226 231 232 227 226 229 230 231 233 237 241 247 254 259
34 345 321 330 322 321 324 324 316 315 285 277 330 329 301 286 285 315 301 291 283 278 294 305 313 323 341 353 339 321 294 254 251 251 246 233 246 272 267 211 184 181 186 188 191 193 196 199 201 202 203 203 203 205 207 207 207 207 209 210 211 212 211 212 212 210 208 208 209 212 216 219 221 221 223 224 227 229 229 230 229 228 227 228 233 236 232 229 230 232 234 237 241 246 253 258 259
1 324 307 315 317 328 336 327 321 319 299 307 340 311 289 290 300 282 277 292 303 298 309 311 323 334 332 342 338 335 324 281 254 243 244 238 230 231 250 255 217 197 197 193 193 197 198 199 202 206 205 205 205 206 208 209 209 210 211 211 212 213 214 214 214 212 211 210 211 214 217 221 223 223 223 223 226 229 229 229 229 228 229 230 234 239 237 232 230 230 234 239 243 249 253 256 254
311 303 286 299 315 329 339 331 331 330 328 137 241 279 291 309 6 300 290 312 323 325 321 315 322 324 321 323 321 334 338 330 310 259 233 235 237 226 225 263 275 246 224 206 198 198 199 200 204 208 207 207 206 206 210 212 211 212 213 214 214 214 214 214 215 214 214 213 214 214 215 219 221 223 222 222 226 231 232 231 230 229 230 232 236 241 240 238 235 233 235 240 245 248 252 254 251
301 309 310 321 333 359 360 352 349 351 350 236 201 265 322 340 12 314 307 318 325 329 323 320 324 315 310 311 314 341 358 2 1 346 294 258 235 228 220 230 272 283 266 239 218 204 199 202 205 207 208 207 207 207 210 213 215 215 214 215 215 216 215 214 215 216 215 216 217 215 215 216 217 220 220 220 227 234 235 233 231 230 231 234 238 242 242 241 241 239 239 242 246 250 254 256 255
318 13 6 340 358 31 10 356 350 3 352 328 290 15 354 0 337 310 315 323 326 332 329 327 328 328 304 298 322 14 26 19 16 10 352 333 271 274 322 319 323 303 273 258 250 223 202 203 205 207 208 208 209 209 212 214 216 216 216 217 217 217 216 216 217 217 218 219 220 218 218 216 215 218 217 218 226 236 236 232 231 232 234 237 239 242 241 240 241 241 241 243 246 249 253 257 257
2 25 38 357 3 15 0 352 349 8 359 342 32 70 337 342 337 331 337 338 341 344 343 345 343 356 61 23 21 37 35 27 20 16 13 14 10 10 19 11 359 352 325 270 258 246 220 204 204 208 208 210 211 209 212 214 213 214 213 213 215 215 216 218 219 219 221 222 223 222 220 217 215 218 216 215 224 235 235 231 232 234 236 238 238 240 240 239 238 240 243 245 247 248 251 255 257
14 358 31 18 10 337 338 350 0 8 351 348 46 88 347 3 358 354 359 359 12 14 5 11 17 33 58 54 49 51 40 34 30 23 22 26 28 31 33 27 21 21 17 8 325 284 255 217 204 208 208 211 213 212 214 213 213 217 215 212 213 215 217 220 221 222 223 223 224 224 222 219 216 218 216 214 219 230 232 230 233 237 238 236 237 241 242 240 239 240 243 245 248 248 249 253 254
25 15 12 3 2 328 327 346 11 2 333 356 39 66 12 15 3 4 16 17 31 34 22 26 34 45 55 54 50 51 44 39 34 27 21 22 25 30 34 34 34 33 29 27 22 9 355 348 306 216 211 212 213 218 221 217 219 223 222 219 217 217 218 221 223 223 224 223 223 223 222 221 219 217 215 214 216 221 226 229 235 241 240 237 238 243 241 240 240 242 244 245 247 248 248 251 252
31 46 15 346 352 342 333 349 7 356 351 16 42 62 26 6 0 13 24 24 34 37 29 30 34 42 49 52 49 44 40 38 33 25 20 21 22 26 34 37 37 37 37 34 30 27 20 13 15 16 359 230 217 224 226 222 224 221 221 223 220 217 218 220 223 225 225 223 223 222 220 221 221 217 214 216 219 221 224 229 235 240 240 240 243 243 239 238 241 243 245 245 247 249 251 252 253
5 26 30 12 349 326 331 344 358 6 28 41 48 62 39 8 12 24 24 22 36 38 29 30 31 35 41 46 49 45 42 40 33 22 19 22 24 28 35 38 39 40 41 39 36 33 31 30 26 23 21 18 330 249 237 230 229 222 219 224 223 219 219 222 223 223 224 224 223 221 221 223 222 219 216 217 221 226 229 232 234 236 238 242 244 243 238 238 240 243 246 247 248 251 252 254 255
322 343 351 346 333 295 315 332 345 13 40 46 47 52 35 19 18 27 23 20 37 38 30 33 33 33 36 40 43 44 46 46 37 27 24 27 29 31 36 40 40 41 40 40 39 36 34 34 33 30 26 23 17 0 338 267 242 235 229 225 226 223 222 227 229 226 223 223 225 223 221 223 222 220 219 219 221 227 231 234 235 235 236 240 242 241 238 238 239 242 245 248 250 252 253 254 256
276 300 313 304 320 297 290 322 323 11 51 43 47 53 35 26 17 21 24 24 37 38 31 35 35 36 36 39 42 40 44 44 37 33 31 33 34 33 36 40 41 42 41 40 40 38 34 33 34 33 29 24 20 17 20 19 302 251 242 227 227 231 229 232 234 234 227 222 226 226 223 223 222 221 220 220 223 228 232 234 236 235 235 238 241 240 239 240 241 242 244 247 249 250 250 251 252
265 276 296 286 291 296 286 18 341 348 70 44 56 61 40 32 21 13 23 32 35 32 33 34 32 39 37 38 42 41 44 41 37 38 35 36 38 37 38 40 41 42 39 38 40 37 33 34 35 32 29 28 26 24 22 23 20 340 299 249 238 244 244 243 243 246 239 228 228 227 225 225 224 223 221 222 225 230 233 233 235 236 235 236 239 242 243 243 244 245 246 246 245 246 247 247 248
359 240 257 293 245 281 290 81 12 351 84 52 61 64 41 33 30 13 20 38 35 23 30 37 33 39 40 38 40 42 46 40 37 39 36 36 38 39 41 40 41 42 38 37 38 34 33 36 35 33 32 30 30 31 27 23 24 19 7 341 292 271 268 271 268 263 252 242 240 233 226 228 226 223 223 224 227 231 233 233 235 236 237 236 238 242 246 246 245 245 244 242 241 242 245 248 249
356 307 237 326 281 271 296 85 30 354 90 63 61 66 44 27 35 26 23 36 41 24 19 29 35 41 42 39 38 39 40 36 33 33 32 33 36 39 41 41 42 42 40 38 36 33 34 35 34 34 35 32 32 36 34 27 29 36 40 32 10 347 335 328 312 293 273 262 258 243 233 235 231 228 228 228 229 232 233 235 236 238 239 239 239 240 244 246 246 244 242 239 238 240 244 248 249
359 329 294 338 332 344 344 50 9 345 112 102 69 71 54 23 30 37 30 26 40 37 20 15 30 43 46 43 40 39 38 34 31 29 28 30 33 36 39 40 40 41 41 38 36 34 34 34 33 33 34 33 34 38 36 31 34 43 50 51 49 45 35 29 28 19 350 301 279 257 245 246 243 240 240 236 235 235 236 238 240 240 240 241 241 239 241 244 245 245 242 239 236 236 240 244 246
334 282 287 333 332 356 332 8 7 344 52 62 42 56 45 20 17 28 28 18 30 39 30 19 24 41 48 45 40 40 39 36 33 29 25 28 32 34 36 38 39 40 40 37 37 35 34 35 35 34 34 33 35 39 38 34 35 41 44 45 44 41 34 31 29 24 22 14 352 318 282 274 270 264 258 251 247 243 240 241 242 241 241 241 242 241 241 244 246 247 245 240 236 234 238 242 245
326 265 241 294 309 322 308 241 142 44 29 0 343 69 43 8 15 17 8 21 28 29 38 34 24 32 42 43 39 36 37 36 34 31 26 28 31 33 35 36 37 38 37 36 37 37 36 36 36 36 34 32 33 37 40 37 35 39 43 39 34 30 25 24 20 15 19 22 18 18 19 7 354 337 309 286 274 262 252 248 246 245 243 242 243 244 244 243 244 246 245 241 236 235 236 238 241
338 317 308 295 283 293 316 302 152 101 56 327 331 98 98 3 20 11 348 16 31 22 35 42 34 32 36 40 39 33 31 30 32 30 27 30 32 33 35 35 37 38 36 37 38 37 37 35 36 37 35 34 34 36 40 40 36 38 43 41 36 32 24 20 18 19 23 22 20 25 29 25 24 21 13 1 341 309 281 262 252 248 246 244 244 244 244 243 243 243 244 241 238 237 234 234 239
312 334 353 351 122 133 339 60 118 120 167 346 7 48 90 31 11 1 339 357 29 25 26 35 39 39 35 34 36 36 32 28 31 30 28 31 33 34 37 37 38 38 37 37 38 38 37 35 35 36 35 35 35 37 40 41 38 38 41 41 38 35 26 18 18 24 28 24 21 25 25 21 22 23 21 19 13 6 354 318 273 257 249 245 244 243 243 244 243 242 241 240 240 240 238 237 239
273 320 352 9 112 120 76 110 125 144 148 54 4 359 68 27 337 348 343 347 18 24 18 20 32 42 41 36 33 36 36 33 36 36 33 34 34 36 38 39 39 38 37 37 37 38 37 36 35 35 35 33 33 36 38 40 40 39 39 38 36 34 28 20 20 26 29 24 20 24 23 18 17 18 18 15 11 10 11 7 350 311 274 256 248 246 246 246 244 242 240 239 241 242 242 240 240
276 313 7 51 77 81 54 99 137 159 98 41 328 289 96 50 315 331 344 342 356 16 16 7 14 31 42 44 38 34 35 36 37 37 37 37 37 38 39 40 40 38 37 38 37 37 36 35 35 35 34 32 31 33 35 37 38 38 38 35 33 31 27 22 22 26 27 23 21 22 20 15 14 15 14 12 10 7 6 6 5 359 342 302 267 253 249 248 246 245 242 240 241 241 241 240 240
290 338 45 44 44 58 32 30 105 86 47 2 314 295 126 101 297 298 314 295 294 327 27 358 352 12 27 41 42 32 31 35 36 37 38 39 38 39 40 40 39 37 37 38 37 36 36 35 34 34 33 32 31 32 34 35 35 36 36 34 31 29 26 24 23 23 22 22 21 21 18 13 13 14 13 10 8 7 4 2 0 359 360 352 325 287 265 255 250 248 246 243 241 239 239 237 238
358 31 59 39 357 15 19 356 35 63 24 276 283 331 54 83 236 233 263 278 289 322 48 33 352 359 2 29 42 31 27 27 30 35 34 35 35 35 37 37 36 36 36 37 36 35 36 35 34 33 32 31 31 32 34 34 34 34 32 32 31 29 27 26 25 23 21 20 19 18 17 13 12 13 11 8 7 6 4 2 1 358 357 357 353 342 320 288 265 252 247 247 245 241 239 238 237
14 20 51 62 1 12 19 342 8 56 278 260 280 342 38 347 251 228 253 279 286 313 342 81 20 357 352 5 20 21 26 23 24 32 29 31 33 32 33 34 34 35 35 36 36 35 35 35 34 34 32 30 30 31 33 33 33 33 31 30 29 28 28 27 26 24 21 19 18 17 16 13 10 10 9 6 4 4 4 2 1 1 359 356 353 351 350 344 318 277 254 250 251 247 244 241 238
5 14 71 91 85 45 16 312 345 309 278 295 333 8 42 297 280 217 213 244 247 242 213 187 181 209 324 328 345 357 10 21 24 29 30 33 34 34 34 33 34 35 35 36 36 35 35 34 34 34 31 30 30 30 31 32 32 31 30 29 28 27 27 26 25 23 20 19 18 17 15 12 9 7 6 5 2 2 4 3 2 1 360 358 355 352 351 353 350 333 298 271 261 254 249 247 244
339 62 110 99 126 114 160 226 262 281 288 303 346 23 186 227 285 217 205 240 249 221 185 184 194 207 237 275 331 354 350 5 16 24 36 39 39 38 37 36 36 37 37 37 37 36 35 34 33 32 31 29 29 29 29 30 29 29 29 29 28 27 26 26 25 23 20 18 17 16 14 11 9 7 5 3 2 2 2 2 2 2 1 359 356 355 353 351 350 348 342 328 302 275 259 251 248
301 96 87 46 158 140 146 183 190 222 308 317 337 268 217 220 280 258 236 291 286 274 305 1 308 281 312 330 318 321 326 344 1 24 37 42 44 42 39 39 37 38 38 38 37 36 35 34 32 32 31 29 28 28 28 27 27 27 28 27 26 26 25 24 23 21 20 18 17 15 12 10 8 6 4 2 2 2 1 1 1 1 1 0 358 356 356 354 351 349 347 345 339 325 304 282 267
304 41 54 279 212 139 123 298 296 84 52 295 300 266 283 320 292 258 227 255 277 273 265 265 270 285 310 306 288 294 309 322 326 356 33 42 45 41 39 38 36 35 36 36 36 35 34 32 32 31 30 28 27 26 26 26 26 26 26 26 25 24 23 22 20 19 17 16 15 13 11 9 7 5 3 2 1 1 1 1 0 360 360 359 358 357 357 356 354 352 349 346 343 339 332 322 306
75 31 300 279 51 88 96 30 357 28 40 285 307 294 290 336 303 258 221 232 254 251 242 246 265 281 279 265 266 268 267 275 294 312 40 51 47 41 38 37 36 34 33 33 33 32 31 30 29 29 28 26 25 24 23 23 23 23 23 23 23 21 20 19 18 17 15 14 13 11 9 6 5 4 2 1 1 0 1 1 359 358 359 358 357 357 356 356 354 352 350 348 346 343 336 331 328
87 87 289 63 69 16 17 66 25 14 352 302 310 313 267 208 223 229 212 222 232 234 240 245 254 255 252 261 263 263 269 275 279 286 332 56 53 42 36 34 34 33 31 30 29 27 28 27 24 25 24 24 23 22 21 21 21 21 21 20 21 20 17 16 16 15 13 12 10 8 7 4 3 3 1 0 0 359 359 359 358 357 356 357 357 357 356 354 352 351 350 349 348 347 342 334 333
12 34 17 51 116 141 33 62 98 134 333 306 319 332 286 224 217 196 205 216 211 217 230 227 232 236 236 247 252 255 261 256 255 259 258 108 75 50 37 34 31 30 27 25 24 22 23 22 20 19 18 19 19 18 17 17 17 17 17 18 18 17 15 13 13 12 10 10 8 6 4 2 0 1 360 359 359 358 357 356 356 356 355 355 355 355 355 353 351 350 349 348 348 347 344 339 334
357 31 24 0 11 83 85 37 88 120 136 213 322 314 277 247 209 188 205 212 200 202 210 214 226 232 233 238 240 246 248 247 251 241 234 222 136 73 42 37 34 30 26 23 21 18 18 18 16 13 13 14 14 14 13 12 12 12 12 13 13 13 12 10 9 9 7 5 5 4 2 359 358 358 358 357 356 356 355 354 354 354 354 353 352 352 352 352 350 349 347 347 347 345 341 339 336
138 98 86 127 357 70 81 335 322 76 135 169 157 280 273 261 213 199 202 198 200 202 196 206 223 224 230 241 236 234 233 236 246 237 228 225 209 190 33 31 33 31 25 22 19 15 14 13 10 6 6 8 8 8 8 7 7 7 7 7 8 8 7 7 6 5 3 2 1 0 359 357 356 356 355 355 354 353 352 352 351 351 351 351 350 350 349 349 348 347 346 345 344 342 339 337 337